Year,Month,Day,Hour,Minute,Value (Times are PST for temperature in C)
2016,11,18,00,00,3.10
2016,11,18,00,01,3.10
2016,11,18,00,02,3.10
2016,11,18,00,03,3.00
2016,11,18,00,04,3.00
2016,11,18,00,05,3.00
2016,11,18,00,06,3.00
2016,11,18,00,07,2.90
2016,11,18,00,08,2.90
2016,11,18,00,09,2.90
2016,11,18,00,10,2.90
2016,11,18,00,11,2.90
2016,11,18,00,12,2.90
2016,11,18,00,13,2.90
2016,11,18,00,17,2.90
2016,11,18,00,18,2.90
2016,11,18,00,19,3.00
2016,11,18,00,20,3.00
2016,11,18,00,21,3.00
2016,11,18,00,22,3.00
2016,11,18,00,23,3.00
2016,11,18,00,24,3.00
2016,11,18,00,25,3.00
2016,11,18,00,26,3.00
2016,11,18,00,27,2.90
2016,11,18,00,28,2.90
2016,11,18,00,29,2.90
2016,11,18,00,30,2.90
2016,11,18,00,31,2.90
2016,11,18,00,32,2.90
2016,11,18,00,33,2.80
2016,11,18,00,34,2.80
2016,11,18,00,35,2.80
2016,11,18,00,36,2.80
2016,11,18,00,37,2.80
2016,11,18,00,38,2.80
2016,11,18,00,39,2.80
2016,11,18,00,40,2.80
2016,11,18,00,41,2.80
2016,11,18,00,42,2.90
2016,11,18,00,43,2.90
2016,11,18,00,44,2.90
2016,11,18,00,45,2.90
2016,11,18,00,46,2.80
2016,11,18,00,47,2.80
2016,11,18,00,48,2.80
2016,11,18,00,49,2.70
2016,11,18,00,50,2.70
2016,11,18,00,51,2.70
2016,11,18,00,52,2.70
2016,11,18,00,53,2.70
2016,11,18,00,54,2.70
2016,11,18,00,55,2.70
2016,11,18,00,56,2.70
2016,11,18,00,57,2.70
2016,11,18,00,58,2.70
2016,11,18,00,59,2.70
2016,11,18,01,00,2.70
2016,11,18,01,01,2.70
2016,11,18,01,02,2.70
2016,11,18,01,03,2.70
2016,11,18,01,04,2.70
2016,11,18,01,05,2.70
2016,11,18,01,06,2.70
2016,11,18,01,07,2.70
2016,11,18,01,08,2.70
2016,11,18,01,09,2.70
2016,11,18,01,10,2.70
2016,11,18,01,11,2.70
2016,11,18,01,12,2.60
2016,11,18,01,13,2.60
2016,11,18,01,14,2.60
2016,11,18,01,15,2.60
2016,11,18,01,16,2.60
2016,11,18,01,17,2.60
2016,11,18,01,18,2.60
2016,11,18,01,19,2.60
2016,11,18,01,20,2.50
2016,11,18,01,21,2.50
2016,11,18,01,22,2.50
2016,11,18,01,23,2.50
2016,11,18,01,24,2.50
2016,11,18,01,25,2.50
2016,11,18,01,26,2.50
2016,11,18,01,27,2.40
2016,11,18,01,28,2.40
2016,11,18,01,29,2.40
2016,11,18,01,30,2.40
2016,11,18,01,31,2.40
2016,11,18,01,32,2.40
2016,11,18,01,33,2.40
2016,11,18,01,34,2.40
2016,11,18,01,35,2.40
2016,11,18,01,36,2.40
2016,11,18,01,37,2.40
2016,11,18,01,38,2.40
2016,11,18,01,39,2.40
2016,11,18,01,40,2.40
2016,11,18,01,41,2.50
2016,11,18,01,42,2.50
2016,11,18,01,43,2.60
2016,11,18,01,44,2.60
2016,11,18,01,45,2.60
2016,11,18,01,46,2.60
2016,11,18,01,47,2.60
2016,11,18,01,48,2.60
2016,11,18,01,49,2.60
2016,11,18,01,50,2.70
2016,11,18,01,51,2.70
2016,11,18,01,52,2.70
2016,11,18,01,53,2.70
2016,11,18,01,54,2.70
2016,11,18,01,55,2.60
2016,11,18,01,56,2.60
2016,11,18,01,57,2.60
2016,11,18,01,58,2.60
2016,11,18,01,59,2.50
2016,11,18,02,00,2.60
2016,11,18,02,01,2.60
2016,11,18,02,02,2.50
2016,11,18,02,03,2.50
2016,11,18,02,04,2.50
2016,11,18,02,05,2.40
2016,11,18,02,06,2.40
2016,11,18,02,07,2.40
2016,11,18,02,08,2.40
2016,11,18,02,09,2.50
2016,11,18,02,10,2.50
2016,11,18,02,11,2.50
2016,11,18,02,12,2.50
2016,11,18,02,13,2.50
2016,11,18,02,14,2.60
2016,11,18,02,15,2.60
2016,11,18,02,16,2.60
2016,11,18,02,17,2.70
2016,11,18,02,18,2.70
2016,11,18,02,19,2.70
2016,11,18,02,20,2.70
2016,11,18,02,21,2.70
2016,11,18,02,22,2.70
2016,11,18,02,23,2.70
2016,11,18,02,24,2.70
2016,11,18,02,25,2.70
2016,11,18,02,26,2.70
2016,11,18,02,27,2.70
2016,11,18,02,28,2.70
2016,11,18,02,29,2.60
2016,11,18,02,30,2.60
2016,11,18,02,31,2.60
2016,11,18,02,32,2.60
2016,11,18,02,33,2.60
2016,11,18,02,34,2.60
2016,11,18,02,35,2.60
2016,11,18,02,36,2.60
2016,11,18,02,37,2.60
2016,11,18,02,38,2.60
2016,11,18,02,39,2.50
2016,11,18,02,40,2.50
2016,11,18,02,41,2.50
2016,11,18,02,42,2.50
2016,11,18,02,43,2.50
2016,11,18,02,44,2.50
2016,11,18,02,45,2.60
2016,11,18,02,46,2.60
2016,11,18,02,47,2.60
2016,11,18,02,48,2.60
2016,11,18,02,49,2.60
2016,11,18,02,50,2.60
2016,11,18,02,51,2.60
2016,11,18,02,52,2.60
2016,11,18,02,53,2.60
2016,11,18,02,54,2.60
2016,11,18,02,55,2.60
2016,11,18,02,56,2.60
2016,11,18,02,57,2.60
2016,11,18,02,58,2.60
2016,11,18,02,59,2.60
2016,11,18,03,00,2.60
2016,11,18,03,01,2.60
2016,11,18,03,02,2.60
2016,11,18,03,03,2.60
2016,11,18,03,04,2.60
2016,11,18,03,05,2.50
2016,11,18,03,06,2.60
2016,11,18,03,07,2.60
2016,11,18,03,08,2.60
2016,11,18,03,09,2.60
2016,11,18,03,10,2.60
2016,11,18,03,11,2.60
2016,11,18,03,12,2.60
2016,11,18,03,13,2.60
2016,11,18,03,14,2.60
2016,11,18,03,15,2.50
2016,11,18,03,16,2.50
2016,11,18,03,17,2.50
2016,11,18,03,18,2.50
2016,11,18,03,19,2.50
2016,11,18,03,20,2.50
2016,11,18,03,21,2.50
2016,11,18,03,22,2.50
2016,11,18,03,23,2.50
2016,11,18,03,24,2.50
2016,11,18,03,25,2.60
2016,11,18,03,26,2.60
2016,11,18,03,27,2.60
2016,11,18,03,28,2.60
2016,11,18,03,29,2.50
2016,11,18,03,30,2.50
2016,11,18,03,31,2.50
2016,11,18,03,32,2.60
2016,11,18,03,33,2.60
2016,11,18,03,34,2.70
2016,11,18,03,35,2.70
2016,11,18,03,36,2.70
2016,11,18,03,37,2.70
2016,11,18,03,38,2.70
2016,11,18,03,39,2.70
2016,11,18,03,40,2.70
2016,11,18,03,41,2.70
2016,11,18,03,42,2.70
2016,11,18,03,43,2.70
2016,11,18,03,44,2.70
2016,11,18,03,45,2.80
2016,11,18,03,46,2.80
2016,11,18,03,47,2.80
2016,11,18,03,48,2.90
2016,11,18,03,49,3.10
2016,11,18,03,50,3.20
2016,11,18,03,51,3.20
2016,11,18,03,52,3.20
2016,11,18,03,53,3.10
2016,11,18,03,54,3.10
2016,11,18,03,55,3.20
2016,11,18,03,56,3.30
2016,11,18,03,57,3.40
2016,11,18,03,58,3.50
2016,11,18,03,59,3.50
2016,11,18,04,00,3.50
2016,11,18,04,01,3.50
2016,11,18,04,02,3.50
2016,11,18,04,03,3.60
2016,11,18,04,04,3.70
2016,11,18,04,05,3.70
2016,11,18,04,06,3.80
2016,11,18,04,07,3.90
2016,11,18,04,08,3.90
2016,11,18,04,09,3.90
2016,11,18,04,10,3.90
2016,11,18,04,11,4.00
2016,11,18,04,12,4.20
2016,11,18,04,13,4.30
2016,11,18,04,14,4.40
2016,11,18,04,15,4.40
2016,11,18,04,16,4.40
2016,11,18,04,17,4.50
2016,11,18,04,18,4.50
2016,11,18,04,19,4.60
2016,11,18,04,20,4.70
2016,11,18,04,21,4.70
2016,11,18,04,22,4.70
2016,11,18,04,23,4.60
2016,11,18,04,24,4.60
2016,11,18,04,25,4.60
2016,11,18,04,26,4.50
2016,11,18,04,27,4.50
2016,11,18,04,28,4.50
2016,11,18,04,29,4.50
2016,11,18,04,30,4.50
2016,11,18,04,31,4.60
2016,11,18,04,32,4.60
2016,11,18,04,33,4.60
2016,11,18,04,34,4.60
2016,11,18,04,35,4.50
2016,11,18,04,36,4.50
2016,11,18,04,37,4.50
2016,11,18,04,38,4.50
2016,11,18,04,39,4.50
2016,11,18,04,40,4.50
2016,11,18,04,41,4.50
2016,11,18,04,42,4.50
2016,11,18,04,43,4.50
2016,11,18,04,44,4.60
2016,11,18,04,45,4.70
2016,11,18,04,46,4.70
2016,11,18,04,47,4.70
2016,11,18,04,48,4.70
2016,11,18,04,49,4.70
2016,11,18,04,50,4.70
2016,11,18,04,51,4.70
2016,11,18,04,52,4.70
2016,11,18,04,53,4.70
2016,11,18,04,54,4.70
2016,11,18,04,55,4.70
2016,11,18,04,56,4.70
2016,11,18,04,57,4.80
2016,11,18,04,58,4.80
2016,11,18,04,59,4.80
2016,11,18,05,00,4.80
2016,11,18,05,01,4.80
2016,11,18,05,02,4.80
2016,11,18,05,03,4.80
2016,11,18,05,04,4.80
2016,11,18,05,05,4.80
2016,11,18,05,06,4.80
2016,11,18,05,07,4.80
2016,11,18,05,08,4.80
2016,11,18,05,09,4.80
2016,11,18,05,10,4.80
2016,11,18,05,11,4.80
2016,11,18,05,12,4.80
2016,11,18,05,13,4.80
2016,11,18,05,14,4.70
2016,11,18,05,15,4.80
2016,11,18,05,16,4.80
2016,11,18,05,17,4.80
2016,11,18,05,18,4.80
2016,11,18,05,19,4.80
2016,11,18,05,20,4.80
2016,11,18,05,21,4.80
2016,11,18,05,22,4.80
2016,11,18,05,23,4.80
2016,11,18,05,24,4.70
2016,11,18,05,25,4.70
2016,11,18,05,26,4.80
2016,11,18,05,27,4.70
2016,11,18,05,28,4.70
2016,11,18,05,29,4.80
2016,11,18,05,30,4.80
2016,11,18,05,31,4.80
2016,11,18,05,32,4.80
2016,11,18,05,33,4.70
2016,11,18,05,34,4.70
2016,11,18,05,35,4.70
2016,11,18,05,36,4.70
2016,11,18,05,37,4.70
2016,11,18,05,38,4.70
2016,11,18,05,39,4.70
2016,11,18,05,40,4.70
2016,11,18,05,41,4.70
2016,11,18,05,42,4.60
2016,11,18,05,43,4.60
2016,11,18,05,44,4.60
2016,11,18,05,45,4.60
2016,11,18,05,46,4.60
2016,11,18,05,47,4.60
2016,11,18,05,48,4.60
2016,11,18,05,49,4.60
2016,11,18,05,50,4.60
2016,11,18,05,51,4.60
2016,11,18,05,52,4.60
2016,11,18,05,53,4.60
2016,11,18,05,54,4.70
2016,11,18,05,55,4.60
2016,11,18,05,56,4.60
2016,11,18,05,57,4.70
2016,11,18,05,58,4.70
2016,11,18,05,59,4.70
2016,11,18,06,00,4.70
2016,11,18,06,01,4.70
2016,11,18,06,02,4.70
2016,11,18,06,03,4.70
2016,11,18,06,04,4.70
2016,11,18,06,05,4.70
2016,11,18,06,06,4.70
2016,11,18,06,07,4.70
2016,11,18,06,08,4.70
2016,11,18,06,09,4.70
2016,11,18,06,10,4.70
2016,11,18,06,11,4.70
2016,11,18,06,12,4.60
2016,11,18,06,13,4.60
2016,11,18,06,14,4.60
2016,11,18,06,15,4.70
2016,11,18,06,16,4.70
2016,11,18,06,17,4.70
2016,11,18,06,18,4.70
2016,11,18,06,19,4.60
2016,11,18,06,20,4.60
2016,11,18,06,21,4.60
2016,11,18,06,22,4.60
2016,11,18,06,23,4.60
2016,11,18,06,24,4.60
2016,11,18,06,25,4.60
2016,11,18,06,26,4.60
2016,11,18,06,27,4.60
2016,11,18,06,28,4.60
2016,11,18,06,29,4.60
2016,11,18,06,30,4.60
2016,11,18,06,31,4.60
2016,11,18,06,32,4.60
2016,11,18,06,33,4.60
2016,11,18,06,34,4.70
2016,11,18,06,35,4.70
2016,11,18,06,36,4.70
2016,11,18,06,37,4.70
2016,11,18,06,38,4.70
2016,11,18,06,39,4.70
2016,11,18,06,40,4.60
2016,11,18,06,41,4.60
2016,11,18,06,42,4.60
2016,11,18,06,43,4.60
2016,11,18,06,44,4.60
2016,11,18,06,45,4.60
2016,11,18,06,46,4.50
2016,11,18,06,47,4.50
2016,11,18,06,48,4.50
2016,11,18,06,49,4.50
2016,11,18,06,50,4.50
2016,11,18,06,51,4.50
2016,11,18,06,52,4.50
2016,11,18,06,53,4.50
2016,11,18,06,54,4.50
2016,11,18,06,55,4.50
2016,11,18,06,56,4.40
2016,11,18,06,57,4.40
2016,11,18,06,58,4.40
2016,11,18,06,59,4.40
2016,11,18,07,00,4.40
2016,11,18,07,01,4.40
2016,11,18,07,02,4.40
2016,11,18,07,03,4.40
2016,11,18,07,04,4.40
2016,11,18,07,05,4.50
2016,11,18,07,06,4.50
2016,11,18,07,07,4.60
2016,11,18,07,08,4.60
2016,11,18,07,09,4.60
2016,11,18,07,10,4.60
2016,11,18,07,11,4.60
2016,11,18,07,12,4.70
2016,11,18,07,13,4.70
2016,11,18,07,14,4.70
2016,11,18,07,15,4.70
2016,11,18,07,16,4.70
2016,11,18,07,17,4.70
2016,11,18,07,18,4.70
2016,11,18,07,19,4.60
2016,11,18,07,20,4.60
2016,11,18,07,21,4.60
2016,11,18,07,22,4.60
2016,11,18,07,23,4.60
2016,11,18,07,24,4.60
2016,11,18,07,25,4.60
2016,11,18,07,26,4.60
2016,11,18,07,27,4.60
2016,11,18,07,28,4.60
2016,11,18,07,29,4.60
2016,11,18,07,30,4.60
2016,11,18,07,31,4.70
2016,11,18,07,32,4.70
2016,11,18,07,33,4.70
2016,11,18,07,34,4.70
2016,11,18,07,35,4.70
2016,11,18,07,36,4.70
2016,11,18,07,37,4.70
2016,11,18,07,38,4.80
2016,11,18,07,39,4.80
2016,11,18,07,40,4.80
2016,11,18,07,41,4.90
2016,11,18,07,42,4.90
2016,11,18,07,43,4.90
2016,11,18,07,44,4.90
2016,11,18,07,45,4.90
2016,11,18,07,46,4.90
2016,11,18,07,47,4.90
2016,11,18,07,48,4.90
2016,11,18,07,49,5.00
2016,11,18,07,50,5.00
2016,11,18,07,51,5.00
2016,11,18,07,52,5.00
2016,11,18,07,53,5.00
2016,11,18,07,54,5.00
2016,11,18,07,55,5.10
2016,11,18,07,56,5.10
2016,11,18,07,57,5.10
2016,11,18,07,58,5.20
2016,11,18,07,59,5.20
2016,11,18,08,00,5.20
2016,11,18,08,01,5.20
2016,11,18,08,02,5.20
2016,11,18,08,03,5.20
2016,11,18,08,04,5.20
2016,11,18,08,05,5.20
2016,11,18,08,06,5.20
2016,11,18,08,07,5.20
2016,11,18,08,08,5.20
2016,11,18,08,09,5.20
2016,11,18,08,10,5.20
2016,11,18,08,11,5.20
2016,11,18,08,12,5.20
2016,11,18,08,13,5.20
2016,11,18,08,14,5.20
2016,11,18,08,15,5.20
2016,11,18,08,16,5.20
2016,11,18,08,17,5.30
2016,11,18,08,18,5.30
2016,11,18,08,19,5.30
2016,11,18,08,20,5.30
2016,11,18,08,21,5.40
2016,11,18,08,22,5.40
2016,11,18,08,23,5.50
2016,11,18,08,24,5.60
2016,11,18,08,25,5.60
2016,11,18,08,26,5.60
2016,11,18,08,27,5.60
2016,11,18,08,28,5.60
2016,11,18,08,29,5.70
2016,11,18,08,30,5.70
2016,11,18,08,31,5.70
2016,11,18,08,32,5.70
2016,11,18,08,33,5.80
2016,11,18,08,34,5.80
2016,11,18,08,35,5.80
2016,11,18,08,36,5.80
2016,11,18,08,37,5.80
2016,11,18,08,38,5.90
2016,11,18,08,39,5.90
2016,11,18,08,40,5.90
2016,11,18,08,41,5.90
2016,11,18,08,42,5.90
2016,11,18,08,43,5.90
2016,11,18,08,44,5.90
2016,11,18,08,45,5.90
2016,11,18,08,46,5.90
2016,11,18,08,47,5.90
2016,11,18,08,48,5.90
2016,11,18,08,49,6.00
2016,11,18,08,50,6.00
2016,11,18,08,51,6.00
2016,11,18,08,52,6.00
2016,11,18,08,53,6.00
2016,11,18,08,54,5.90
2016,11,18,08,55,5.90
2016,11,18,08,56,5.90
2016,11,18,08,57,5.90
2016,11,18,08,58,5.90
2016,11,18,08,59,5.90
2016,11,18,09,00,5.90
2016,11,18,09,01,5.90
2016,11,18,09,02,5.90
2016,11,18,09,03,5.90
2016,11,18,09,04,5.90
2016,11,18,09,05,5.90
2016,11,18,09,06,5.90
2016,11,18,09,07,5.90
2016,11,18,09,08,5.90
2016,11,18,09,09,5.90
2016,11,18,09,10,6.00
2016,11,18,09,11,6.00
2016,11,18,09,12,6.00
2016,11,18,09,13,6.10
2016,11,18,09,14,6.10
2016,11,18,09,15,6.10
2016,11,18,09,16,6.20
2016,11,18,09,17,6.20
2016,11,18,09,18,6.20
2016,11,18,09,19,6.20
2016,11,18,09,20,6.20
2016,11,18,09,21,6.10
2016,11,18,09,22,6.10
2016,11,18,09,23,6.10
2016,11,18,09,24,6.10
2016,11,18,09,25,6.10
2016,11,18,09,26,6.00
2016,11,18,09,27,6.00
2016,11,18,09,28,6.00
2016,11,18,09,29,6.00
2016,11,18,09,30,6.00
2016,11,18,09,31,6.00
2016,11,18,09,32,6.10
2016,11,18,09,33,6.10
2016,11,18,09,34,6.20
2016,11,18,09,35,6.20
2016,11,18,09,36,6.20
2016,11,18,09,37,6.30
2016,11,18,09,38,6.30
2016,11,18,09,39,6.30
2016,11,18,09,40,6.40
2016,11,18,09,41,6.40
2016,11,18,09,42,6.40
2016,11,18,09,43,6.40
2016,11,18,09,44,6.40
2016,11,18,09,45,6.40
2016,11,18,09,46,6.40
2016,11,18,09,47,6.50
2016,11,18,09,48,6.50
2016,11,18,09,49,6.60
2016,11,18,09,50,6.60
2016,11,18,09,51,6.60
2016,11,18,09,52,6.60
2016,11,18,09,53,6.60
2016,11,18,09,54,6.60
2016,11,18,09,55,6.60
2016,11,18,09,56,6.70
2016,11,18,09,57,6.70
2016,11,18,09,58,6.60
2016,11,18,09,59,6.70
2016,11,18,10,00,6.70
2016,11,18,10,01,6.70
2016,11,18,10,02,6.70
2016,11,18,10,03,6.70
2016,11,18,10,04,6.70
2016,11,18,10,05,6.70
2016,11,18,10,06,6.70
2016,11,18,10,07,6.70
2016,11,18,10,08,6.60
2016,11,18,10,09,6.60
2016,11,18,10,10,6.60
2016,11,18,10,11,6.60
2016,11,18,10,12,6.60
2016,11,18,10,13,6.70
2016,11,18,10,14,6.70
2016,11,18,10,15,6.70
2016,11,18,10,16,6.80
2016,11,18,10,17,6.80
2016,11,18,10,18,6.80
2016,11,18,10,19,6.70
2016,11,18,10,20,6.70
2016,11,18,10,21,6.70
2016,11,18,10,22,6.70
2016,11,18,10,23,6.70
2016,11,18,10,24,6.70
2016,11,18,10,25,6.70
2016,11,18,10,26,6.70
2016,11,18,10,27,6.70
2016,11,18,10,28,6.70
2016,11,18,10,29,6.80
2016,11,18,10,30,6.80
2016,11,18,10,31,6.90
2016,11,18,10,32,6.90
2016,11,18,10,33,6.90
2016,11,18,10,34,6.90
2016,11,18,10,35,6.90
2016,11,18,10,36,6.90
2016,11,18,10,37,6.90
2016,11,18,10,38,6.90
2016,11,18,10,39,6.90
2016,11,18,10,40,6.90
2016,11,18,10,41,6.90
2016,11,18,10,42,7.00
2016,11,18,10,43,7.00
2016,11,18,10,44,7.10
2016,11,18,10,45,7.10
2016,11,18,10,46,7.20
2016,11,18,10,47,7.20
2016,11,18,10,48,7.30
2016,11,18,10,49,7.30
2016,11,18,10,50,7.30
2016,11,18,10,51,7.30
2016,11,18,10,52,7.40
2016,11,18,10,53,7.40
2016,11,18,10,54,7.50
2016,11,18,10,55,7.50
2016,11,18,10,56,7.50
2016,11,18,10,57,7.60
2016,11,18,10,58,7.60
2016,11,18,10,59,7.60
2016,11,18,11,00,7.50
2016,11,18,11,01,7.50
2016,11,18,11,02,7.40
2016,11,18,11,03,7.40
2016,11,18,11,04,7.30
2016,11,18,11,05,7.20
2016,11,18,11,06,7.20
2016,11,18,11,07,7.10
2016,11,18,11,08,7.10
2016,11,18,11,09,7.10
2016,11,18,11,10,7.10
2016,11,18,11,11,7.10
2016,11,18,11,12,7.20
2016,11,18,11,13,7.20
2016,11,18,11,14,7.30
2016,11,18,11,15,7.30
2016,11,18,11,16,7.30
2016,11,18,11,17,7.20
2016,11,18,11,18,7.20
2016,11,18,11,19,7.20
2016,11,18,11,20,7.10
2016,11,18,11,21,7.10
2016,11,18,11,22,7.10
2016,11,18,11,23,7.10
2016,11,18,11,24,7.10
2016,11,18,11,25,7.10
2016,11,18,11,26,7.10
2016,11,18,11,27,7.10
2016,11,18,11,28,7.10
2016,11,18,11,29,7.10
2016,11,18,11,30,7.10
2016,11,18,11,31,7.20
2016,11,18,11,32,7.20
2016,11,18,11,33,7.20
2016,11,18,11,34,7.20
2016,11,18,11,35,7.20
2016,11,18,11,36,7.20
2016,11,18,11,37,7.20
2016,11,18,11,38,7.30
2016,11,18,11,39,7.30
